owner,sensor,date,latitude,longitude,vertical_datum,sea_water_temperature,qcFlag 
WAVCIS,ioos:station:WAVCIS:CSI16:2,2010-11-01T00:00:00Z,29.4012,-89.0355,10.0,23.834,11111222 
WAVCIS,ioos:station:WAVCIS:CSI16:2,2010-11-01T00:15:00Z,29.4012,-89.0355,10.0,23.84,11111222 
WAVCIS,ioos:station:WAVCIS:CSI16:2,2010-11-01T00:30:00Z,29.4012,-89.0355,10.0,23.841,11111222 
WAVCIS,ioos:station:WAVCIS:CSI16:2,2010-11-01T00:45:00Z,29.4012,-89.0355,10.0,23.825,11111222 
WAVCIS,ioos:station:WAVCIS:CSI16:2,2010-11-01T01:00:00Z,29.4012,-89.0355,10.0,23.818,11111222 
WAVCIS,ioos:station:WAVCIS:CSI16:2,2010-11-01T01:15:00Z,29.4012,-89.0355,10.0,23.825,11111222 
WAVCIS,ioos:station:WAVCIS:CSI16:2,2010-11-01T01:30:00Z,29.4012,-89.0355,10.0,23.847,11111222 
WAVCIS,ioos:station:WAVCIS:CSI16:2,2010-11-01T01:45:00Z,29.4012,-89.0355,10.0,23.872,11111222 
WAVCIS,ioos:station:WAVCIS:CSI16:2,2010-11-01T02:00:00Z,29.4012,-89.0355,10.0,23.868,11111222 
WAVCIS,ioos:station:WAVCIS:CSI16:2,2010-11-01T02:15:00Z,29.4012,-89.0355,10.0,23.837,11111222 
WAVCIS,ioos:station:WAVCIS:CSI16:2,2010-11-01T02:30:00Z,29.4012,-89.0355,10.0,23.84,11111222 
WAVCIS,ioos:station:WAVCIS:CSI16:2,2010-11-01T02:45:00Z,29.4012,-89.0355,10.0,23.853,11111222 
WAVCIS,ioos:station:WAVCIS:CSI16:2,2010-11-01T03:00:00Z,29.4012,-89.0355,10.0,23.864,11111222 
WAVCIS,ioos:station:WAVCIS:CSI16:2,2010-11-01T03:15:00Z,29.4012,-89.0355,10.0,23.885,11111222 
WAVCIS,ioos:station:WAVCIS:CSI16:2,2010-11-01T03:30:00Z,29.4012,-89.0355,10.0,23.875,11111222 
WAVCIS,ioos:station:WAVCIS:CSI16:2,2010-11-01T03:45:00Z,29.4012,-89.0355,10.0,23.875,11111222 
WAVCIS,ioos:station:WAVCIS:CSI16:2,2010-11-01T04:00:00Z,29.4012,-89.0355,10.0,23.883,11111222 
WAVCIS,ioos:station:WAVCIS:CSI16:2,2010-11-01T04:15:00Z,29.4012,-89.0355,10.0,23.892,11111222 
WAVCIS,ioos:station:WAVCIS:CSI16:2,2010-11-01T04:30:00Z,29.4012,-89.0355,10.0,23.904,11111222 
WAVCIS,ioos:station:WAVCIS:CSI16:2,2010-11-01T04:45:00Z,29.4012,-89.0355,10.0,23.924,11111222 
WAVCIS,ioos:station:WAVCIS:CSI16:2,2010-11-01T05:00:00Z,29.4012,-89.0355,10.0,23.923,11111222 
WAVCIS,ioos:station:WAVCIS:CSI16:2,2010-11-01T05:15:00Z,29.4012,-89.0355,10.0,23.981,11111222 
WAVCIS,ioos:station:WAVCIS:CSI16:2,2010-11-01T05:30:00Z,29.4012,-89.0355,10.0,23.993,11111222 
WAVCIS,ioos:station:WAVCIS:CSI16:2,2010-11-01T05:45:00Z,29.4012,-89.0355,10.0,24.017,11111222 
WAVCIS,ioos:station:WAVCIS:CSI16:2,2010-11-01T06:00:00Z,29.4012,-89.0355,10.0,24.028,11111222 
WAVCIS,ioos:station:WAVCIS:CSI16:2,2010-11-01T06:15:00Z,29.4012,-89.0355,10.0,24.047,11111222 
WAVCIS,ioos:station:WAVCIS:CSI16:2,2010-11-01T06:30:00Z,29.4012,-89.0355,10.0,24.117,11111222 
WAVCIS,ioos:station:WAVCIS:CSI16:2,2010-11-01T06:45:00Z,29.4012,-89.0355,10.0,24.117,11111222 
WAVCIS,ioos:station:WAVCIS:CSI16:2,2010-11-01T07:00:00Z,29.4012,-89.0355,10.0,24.14,11111222 
WAVCIS,ioos:station:WAVCIS:CSI16:2,2010-11-01T07:15:00Z,29.4012,-89.0355,10.0,24.161,11111222 
WAVCIS,ioos:station:WAVCIS:CSI16:2,2010-11-01T07:30:00Z,29.4012,-89.0355,10.0,24.167,11111222 
WAVCIS,ioos:station:WAVCIS:CSI16:2,2010-11-01T07:45:00Z,29.4012,-89.0355,10.0,24.176,11111222 
WAVCIS,ioos:station:WAVCIS:CSI16:2,2010-11-01T08:00:00Z,29.4012,-89.0355,10.0,24.197,11111222 
WAVCIS,ioos:station:WAVCIS:CSI16:2,2010-11-01T08:15:00Z,29.4012,-89.0355,10.0,24.177,11111222 
WAVCIS,ioos:station:WAVCIS:CSI16:2,2010-11-01T08:30:00Z,29.4012,-89.0355,10.0,24.205,11111222 
WAVCIS,ioos:station:WAVCIS:CSI16:2,2010-11-01T08:45:00Z,29.4012,-89.0355,10.0,24.196,11111222 
WAVCIS,ioos:station:WAVCIS:CSI16:2,2010-11-01T09:00:00Z,29.4012,-89.0355,10.0,24.196,11111222 
WAVCIS,ioos:station:WAVCIS:CSI16:2,2010-11-01T09:15:00Z,29.4012,-89.0355,10.0,24.2,11111222 
WAVCIS,ioos:station:WAVCIS:CSI16:2,2010-11-01T09:30:00Z,29.4012,-89.0355,10.0,24.188,11111222 
WAVCIS,ioos:station:WAVCIS:CSI16:2,2010-11-01T09:45:00Z,29.4012,-89.0355,10.0,24.186,11111222 
WAVCIS,ioos:station:WAVCIS:CSI16:2,2010-11-01T10:00:00Z,29.4012,-89.0355,10.0,24.179,11111222 
WAVCIS,ioos:station:WAVCIS:CSI16:2,2010-11-01T10:15:00Z,29.4012,-89.0355,10.0,24.168,11111222 
WAVCIS,ioos:station:WAVCIS:CSI16:2,2010-11-01T10:30:00Z,29.4012,-89.0355,10.0,24.155,11111222 
WAVCIS,ioos:station:WAVCIS:CSI16:2,2010-11-01T10:45:00Z,29.4012,-89.0355,10.0,24.177,11111222 
WAVCIS,ioos:station:WAVCIS:CSI16:2,2010-11-01T11:00:00Z,29.4012,-89.0355,10.0,24.215,11111222 
WAVCIS,ioos:station:WAVCIS:CSI16:2,2010-11-01T11:15:00Z,29.4012,-89.0355,10.0,24.185,11111222 
WAVCIS,ioos:station:WAVCIS:CSI16:2,2010-11-01T11:30:00Z,29.4012,-89.0355,10.0,24.168,11111222 
WAVCIS,ioos:station:WAVCIS:CSI16:2,2010-11-01T11:45:00Z,29.4012,-89.0355,10.0,24.199,11111222 
WAVCIS,ioos:station:WAVCIS:CSI16:2,2010-11-01T12:00:00Z,29.4012,-89.0355,10.0,24.227,11111222 
WAVCIS,ioos:station:WAVCIS:CSI16:2,2010-11-01T12:15:00Z,29.4012,-89.0355,10.0,24.254,11111222 
WAVCIS,ioos:station:WAVCIS:CSI16:2,2010-11-01T12:30:00Z,29.4012,-89.0355,10.0,24.189,11111222 
WAVCIS,ioos:station:WAVCIS:CSI16:2,2010-11-01T12:45:00Z,29.4012,-89.0355,10.0,24.205,11111222 
WAVCIS,ioos:station:WAVCIS:CSI16:2,2010-11-01T13:00:00Z,29.4012,-89.0355,10.0,24.193,11111222 
WAVCIS,ioos:station:WAVCIS:CSI16:2,2010-11-01T13:15:00Z,29.4012,-89.0355,10.0,24.107,11111222 
WAVCIS,ioos:station:WAVCIS:CSI16:2,2010-11-01T13:30:00Z,29.4012,-89.0355,10.0,24.167,11111222 
WAVCIS,ioos:station:WAVCIS:CSI16:2,2010-11-01T13:45:00Z,29.4012,-89.0355,10.0,24.081,11111222 
WAVCIS,ioos:station:WAVCIS:CSI16:2,2010-11-01T14:00:00Z,29.4012,-89.0355,10.0,24.404,11111222 
WAVCIS,ioos:station:WAVCIS:CSI16:2,2010-11-01T14:15:00Z,29.4012,-89.0355,10.0,24.278,11111222 
WAVCIS,ioos:station:WAVCIS:CSI16:2,2010-11-01T14:30:00Z,29.4012,-89.0355,10.0,24.284,11111222 
WAVCIS,ioos:station:WAVCIS:CSI16:2,2010-11-01T14:45:00Z,29.4012,-89.0355,10.0,24.332,11111222 
WAVCIS,ioos:station:WAVCIS:CSI16:2,2010-11-01T15:00:00Z,29.4012,-89.0355,10.0,24.382,11111222 
WAVCIS,ioos:station:WAVCIS:CSI16:2,2010-11-01T15:15:00Z,29.4012,-89.0355,10.0,24.463,11111222 
WAVCIS,ioos:station:WAVCIS:CSI16:2,2010-11-01T15:30:00Z,29.4012,-89.0355,10.0,24.422,11111222 
WAVCIS,ioos:station:WAVCIS:CSI16:2,2010-11-01T15:45:00Z,29.4012,-89.0355,10.0,24.536,11111222 
WAVCIS,ioos:station:WAVCIS:CSI16:2,2010-11-01T16:00:00Z,29.4012,-89.0355,10.0,24.584,11111222 
WAVCIS,ioos:station:WAVCIS:CSI16:2,2010-11-01T16:15:00Z,29.4012,-89.0355,10.0,24.569,11111222 
WAVCIS,ioos:station:WAVCIS:CSI16:2,2010-11-01T16:30:00Z,29.4012,-89.0355,10.0,24.623,11111222 
WAVCIS,ioos:station:WAVCIS:CSI16:2,2010-11-01T16:45:00Z,29.4012,-89.0355,10.0,24.625,11111222 
WAVCIS,ioos:station:WAVCIS:CSI16:2,2010-11-01T17:00:00Z,29.4012,-89.0355,10.0,24.568,11111222 
WAVCIS,ioos:station:WAVCIS:CSI16:2,2010-11-01T17:15:00Z,29.4012,-89.0355,10.0,24.635,11111222 
WAVCIS,ioos:station:WAVCIS:CSI16:2,2010-11-01T17:30:00Z,29.4012,-89.0355,10.0,24.6,11111222 
WAVCIS,ioos:station:WAVCIS:CSI16:2,2010-11-01T17:45:00Z,29.4012,-89.0355,10.0,24.544,11111222 
WAVCIS,ioos:station:WAVCIS:CSI16:2,2010-11-01T18:00:00Z,29.4012,-89.0355,10.0,24.611,11111222 
WAVCIS,ioos:station:WAVCIS:CSI16:2,2010-11-01T18:15:00Z,29.4012,-89.0355,10.0,24.645,11111222 
WAVCIS,ioos:station:WAVCIS:CSI16:2,2010-11-01T18:30:00Z,29.4012,-89.0355,10.0,24.649,11111222 
WAVCIS,ioos:station:WAVCIS:CSI16:2,2010-11-01T18:45:00Z,29.4012,-89.0355,10.0,24.684,11111222 
WAVCIS,ioos:station:WAVCIS:CSI16:2,2010-11-01T19:00:00Z,29.4012,-89.0355,10.0,24.557,11111222 
WAVCIS,ioos:station:WAVCIS:CSI16:2,2010-11-01T19:15:00Z,29.4012,-89.0355,10.0,24.606,11111222 
WAVCIS,ioos:station:WAVCIS:CSI16:2,2010-11-01T19:30:00Z,29.4012,-89.0355,10.0,24.727,11111222 
WAVCIS,ioos:station:WAVCIS:CSI16:2,2010-11-01T19:45:00Z,29.4012,-89.0355,10.0,24.724,11111222 
WAVCIS,ioos:station:WAVCIS:CSI16:2,2010-11-01T20:00:00Z,29.4012,-89.0355,10.0,24.752,11111222 
WAVCIS,ioos:station:WAVCIS:CSI16:2,2010-11-01T20:15:00Z,29.4012,-89.0355,10.0,24.773,11111222 
WAVCIS,ioos:station:WAVCIS:CSI16:2,2010-11-01T20:30:00Z,29.4012,-89.0355,10.0,24.898,11111222 
WAVCIS,ioos:station:WAVCIS:CSI16:2,2010-11-01T20:45:00Z,29.4012,-89.0355,10.0,24.803,11111222 
WAVCIS,ioos:station:WAVCIS:CSI16:2,2010-11-01T21:00:00Z,29.4012,-89.0355,10.0,24.852,11111222 
WAVCIS,ioos:station:WAVCIS:CSI16:2,2010-11-01T21:15:00Z,29.4012,-89.0355,10.0,24.95,11111222 
WAVCIS,ioos:station:WAVCIS:CSI16:2,2010-11-01T21:30:00Z,29.4012,-89.0355,10.0,24.788,11111222 
WAVCIS,ioos:station:WAVCIS:CSI16:2,2010-11-01T21:45:00Z,29.4012,-89.0355,10.0,24.911,11111222 
WAVCIS,ioos:station:WAVCIS:CSI16:2,2010-11-01T22:00:00Z,29.4012,-89.0355,10.0,24.982,11111222 
WAVCIS,ioos:station:WAVCIS:CSI16:2,2010-11-01T22:15:00Z,29.4012,-89.0355,10.0,24.989,11111222 
WAVCIS,ioos:station:WAVCIS:CSI16:2,2010-11-01T22:30:00Z,29.4012,-89.0355,10.0,24.884,11111222 
WAVCIS,ioos:station:WAVCIS:CSI16:2,2010-11-01T22:45:00Z,29.4012,-89.0355,10.0,24.901,11111222 
WAVCIS,ioos:station:WAVCIS:CSI16:2,2010-11-01T23:00:00Z,29.4012,-89.0355,10.0,25.015,11111222 
WAVCIS,ioos:station:WAVCIS:CSI16:2,2010-11-01T23:15:00Z,29.4012,-89.0355,10.0,24.622,11111222 
WAVCIS,ioos:station:WAVCIS:CSI16:2,2010-11-01T23:30:00Z,29.4012,-89.0355,10.0,24.47,11111222 
WAVCIS,ioos:station:WAVCIS:CSI16:2,2010-11-01T23:45:00Z,29.4012,-89.0355,10.0,24.065,11111222 
WAVCIS,ioos:station:WAVCIS:CSI16:2,2010-11-02T00:00:00Z,29.4012,-89.0355,10.0,24.371,11111222 
WAVCIS,ioos:station:WAVCIS:CSI16:2,2010-11-02T00:15:00Z,29.4012,-89.0355,10.0,24.932,11111222 
WAVCIS,ioos:station:WAVCIS:CSI16:2,2010-11-02T00:30:00Z,29.4012,-89.0355,10.0,24.964,11111222 
WAVCIS,ioos:station:WAVCIS:CSI16:2,2010-11-02T00:45:00Z,29.4012,-89.0355,10.0,24.969,11111222 
WAVCIS,ioos:station:WAVCIS:CSI16:2,2010-11-02T01:00:00Z,29.4012,-89.0355,10.0,24.981,11111222 
WAVCIS,ioos:station:WAVCIS:CSI16:2,2010-11-02T01:15:00Z,29.4012,-89.0355,10.0,25.083,11111222 
WAVCIS,ioos:station:WAVCIS:CSI16:2,2010-11-02T01:30:00Z,29.4012,-89.0355,10.0,25.116,11111222 
WAVCIS,ioos:station:WAVCIS:CSI16:2,2010-11-02T01:45:00Z,29.4012,-89.0355,10.0,24.952,11111222 
WAVCIS,ioos:station:WAVCIS:CSI16:2,2010-11-02T02:00:00Z,29.4012,-89.0355,10.0,25.179,11111222 
WAVCIS,ioos:station:WAVCIS:CSI16:2,2010-11-02T02:15:00Z,29.4012,-89.0355,10.0,25.106,11111222 
WAVCIS,ioos:station:WAVCIS:CSI16:2,2010-11-02T02:30:00Z,29.4012,-89.0355,10.0,25.098,11111222 
WAVCIS,ioos:station:WAVCIS:CSI16:2,2010-11-02T02:45:00Z,29.4012,-89.0355,10.0,25.038,11111222 
WAVCIS,ioos:station:WAVCIS:CSI16:2,2010-11-02T03:00:00Z,29.4012,-89.0355,10.0,24.717,11111222 
WAVCIS,ioos:station:WAVCIS:CSI16:2,2010-11-02T03:15:00Z,29.4012,-89.0355,10.0,24.86,11111222 
WAVCIS,ioos:station:WAVCIS:CSI16:2,2010-11-02T03:30:00Z,29.4012,-89.0355,10.0,24.862,11111222 
WAVCIS,ioos:station:WAVCIS:CSI16:2,2010-11-02T03:45:00Z,29.4012,-89.0355,10.0,24.851,11111222 
WAVCIS,ioos:station:WAVCIS:CSI16:2,2010-11-02T04:00:00Z,29.4012,-89.0355,10.0,24.767,11111222 
WAVCIS,ioos:station:WAVCIS:CSI16:2,2010-11-02T04:15:00Z,29.4012,-89.0355,10.0,24.746,11111222 
WAVCIS,ioos:station:WAVCIS:CSI16:2,2010-11-02T04:30:00Z,29.4012,-89.0355,10.0,24.765,11111222 
WAVCIS,ioos:station:WAVCIS:CSI16:2,2010-11-02T04:45:00Z,29.4012,-89.0355,10.0,24.79,11111222 
WAVCIS,ioos:station:WAVCIS:CSI16:2,2010-11-02T05:00:00Z,29.4012,-89.0355,10.0,24.831,11111222 
WAVCIS,ioos:station:WAVCIS:CSI16:2,2010-11-02T05:15:00Z,29.4012,-89.0355,10.0,24.71,11111222 
WAVCIS,ioos:station:WAVCIS:CSI16:2,2010-11-02T05:30:00Z,29.4012,-89.0355,10.0,24.654,11111222 
WAVCIS,ioos:station:WAVCIS:CSI16:2,2010-11-02T05:45:00Z,29.4012,-89.0355,10.0,24.684,11111222 
WAVCIS,ioos:station:WAVCIS:CSI16:2,2010-11-02T06:00:00Z,29.4012,-89.0355,10.0,24.732,11111222 
WAVCIS,ioos:station:WAVCIS:CSI16:2,2010-11-02T06:15:00Z,29.4012,-89.0355,10.0,24.879,11111222 
WAVCIS,ioos:station:WAVCIS:CSI16:2,2010-11-02T06:30:00Z,29.4012,-89.0355,10.0,24.803,11111222 
WAVCIS,ioos:station:WAVCIS:CSI16:2,2010-11-02T06:45:00Z,29.4012,-89.0355,10.0,24.777,11111222 
WAVCIS,ioos:station:WAVCIS:CSI16:2,2010-11-02T07:00:00Z,29.4012,-89.0355,10.0,24.83,11111222 
WAVCIS,ioos:station:WAVCIS:CSI16:2,2010-11-02T07:15:00Z,29.4012,-89.0355,10.0,24.808,11111222 
WAVCIS,ioos:station:WAVCIS:CSI16:2,2010-11-02T07:30:00Z,29.4012,-89.0355,10.0,25.009,11111222 
WAVCIS,ioos:station:WAVCIS:CSI16:2,2010-11-02T07:45:00Z,29.4012,-89.0355,10.0,25.039,11111222 
WAVCIS,ioos:station:WAVCIS:CSI16:2,2010-11-02T08:00:00Z,29.4012,-89.0355,10.0,25.046,11111222 
WAVCIS,ioos:station:WAVCIS:CSI16:2,2010-11-02T08:15:00Z,29.4012,-89.0355,10.0,25.063,11111222 
WAVCIS,ioos:station:WAVCIS:CSI16:2,2010-11-02T08:30:00Z,29.4012,-89.0355,10.0,25.106,11111222 
WAVCIS,ioos:station:WAVCIS:CSI16:2,2010-11-02T08:45:00Z,29.4012,-89.0355,10.0,25.105,11111222 
WAVCIS,ioos:station:WAVCIS:CSI16:2,2010-11-02T09:00:00Z,29.4012,-89.0355,10.0,25.112,11111222 
WAVCIS,ioos:station:WAVCIS:CSI16:2,2010-11-02T09:15:00Z,29.4012,-89.0355,10.0,25.074,11111222 
WAVCIS,ioos:station:WAVCIS:CSI16:2,2010-11-02T09:30:00Z,29.4012,-89.0355,10.0,25.076,11111222 
WAVCIS,ioos:station:WAVCIS:CSI16:2,2010-11-02T09:45:00Z,29.4012,-89.0355,10.0,25.101,11111222 
WAVCIS,ioos:station:WAVCIS:CSI16:2,2010-11-02T10:00:00Z,29.4012,-89.0355,10.0,25.156,11111222 
WAVCIS,ioos:station:WAVCIS:CSI16:2,2010-11-02T10:15:00Z,29.4012,-89.0355,10.0,25.134,11111222 
WAVCIS,ioos:station:WAVCIS:CSI16:2,2010-11-02T10:30:00Z,29.4012,-89.0355,10.0,25.128,11111222 
WAVCIS,ioos:station:WAVCIS:CSI16:2,2010-11-02T10:45:00Z,29.4012,-89.0355,10.0,25.156,11111222 
WAVCIS,ioos:station:WAVCIS:CSI16:2,2010-11-02T11:00:00Z,29.4012,-89.0355,10.0,25.233,11111222 
WAVCIS,ioos:station:WAVCIS:CSI16:2,2010-11-02T11:15:00Z,29.4012,-89.0355,10.0,25.253,11111222 
WAVCIS,ioos:station:WAVCIS:CSI16:2,2010-11-02T11:30:00Z,29.4012,-89.0355,10.0,25.234,11111222 
WAVCIS,ioos:station:WAVCIS:CSI16:2,2010-11-02T11:45:00Z,29.4012,-89.0355,10.0,25.078,11111222 
WAVCIS,ioos:station:WAVCIS:CSI16:2,2010-11-02T12:00:00Z,29.4012,-89.0355,10.0,25.258,11111222 
WAVCIS,ioos:station:WAVCIS:CSI16:2,2010-11-02T12:15:00Z,29.4012,-89.0355,10.0,25.172,11111222 
WAVCIS,ioos:station:WAVCIS:CSI16:2,2010-11-02T12:30:00Z,29.4012,-89.0355,10.0,25.095,11111222 
WAVCIS,ioos:station:WAVCIS:CSI16:2,2010-11-02T12:45:00Z,29.4012,-89.0355,10.0,25.222,11111222 
WAVCIS,ioos:station:WAVCIS:CSI16:2,2010-11-02T13:00:00Z,29.4012,-89.0355,10.0,25.244,11111222 
WAVCIS,ioos:station:WAVCIS:CSI16:2,2010-11-02T13:15:00Z,29.4012,-89.0355,10.0,25.19,11111222 
WAVCIS,ioos:station:WAVCIS:CSI16:2,2010-11-02T13:30:00Z,29.4012,-89.0355,10.0,25.279,11111222 
WAVCIS,ioos:station:WAVCIS:CSI16:2,2010-11-02T13:45:00Z,29.4012,-89.0355,10.0,25.354,11111222 
WAVCIS,ioos:station:WAVCIS:CSI16:2,2010-11-02T14:00:00Z,29.4012,-89.0355,10.0,25.341,11111222 
WAVCIS,ioos:station:WAVCIS:CSI16:2,2010-11-02T14:15:00Z,29.4012,-89.0355,10.0,25.399,11111222 
WAVCIS,ioos:station:WAVCIS:CSI16:2,2010-11-02T14:30:00Z,29.4012,-89.0355,10.0,25.439,11111222 
WAVCIS,ioos:station:WAVCIS:CSI16:2,2010-11-02T14:45:00Z,29.4012,-89.0355,10.0,25.36,11111222 
WAVCIS,ioos:station:WAVCIS:CSI16:2,2010-11-02T15:00:00Z,29.4012,-89.0355,10.0,25.393,11111222 
WAVCIS,ioos:station:WAVCIS:CSI16:2,2010-11-02T15:15:00Z,29.4012,-89.0355,10.0,25.453,11111222 
WAVCIS,ioos:station:WAVCIS:CSI16:2,2010-11-02T15:30:00Z,29.4012,-89.0355,10.0,25.457,11111222 
WAVCIS,ioos:station:WAVCIS:CSI16:2,2010-11-02T15:45:00Z,29.4012,-89.0355,10.0,25.474,11111222 
WAVCIS,ioos:station:WAVCIS:CSI16:2,2010-11-02T16:00:00Z,29.4012,-89.0355,10.0,25.472,11111222 
WAVCIS,ioos:station:WAVCIS:CSI16:2,2010-11-02T16:15:00Z,29.4012,-89.0355,10.0,25.479,11111222 
WAVCIS,ioos:station:WAVCIS:CSI16:2,2010-11-02T16:30:00Z,29.4012,-89.0355,10.0,25.493,11111222 
WAVCIS,ioos:station:WAVCIS:CSI16:2,2010-11-02T16:45:00Z,29.4012,-89.0355,10.0,25.5,11111222 
WAVCIS,ioos:station:WAVCIS:CSI16:2,2010-11-02T17:00:00Z,29.4012,-89.0355,10.0,25.515,11111222 
WAVCIS,ioos:station:WAVCIS:CSI16:2,2010-11-02T17:15:00Z,29.4012,-89.0355,10.0,25.515,11111222 
WAVCIS,ioos:station:WAVCIS:CSI16:2,2010-11-02T17:30:00Z,29.4012,-89.0355,10.0,25.427,11111222 
WAVCIS,ioos:station:WAVCIS:CSI16:2,2010-11-02T17:45:00Z,29.4012,-89.0355,10.0,25.542,11111222 
WAVCIS,ioos:station:WAVCIS:CSI16:2,2010-11-02T18:00:00Z,29.4012,-89.0355,10.0,25.535,11111222 
WAVCIS,ioos:station:WAVCIS:CSI16:2,2010-11-02T18:15:00Z,29.4012,-89.0355,10.0,25.549,11111222 
WAVCIS,ioos:station:WAVCIS:CSI16:2,2010-11-02T18:30:00Z,29.4012,-89.0355,10.0,25.56,11111222 
WAVCIS,ioos:station:WAVCIS:CSI16:2,2010-11-02T18:45:00Z,29.4012,-89.0355,10.0,25.567,11111222 
WAVCIS,ioos:station:WAVCIS:CSI16:2,2010-11-02T19:00:00Z,29.4012,-89.0355,10.0,25.576,11111222 
WAVCIS,ioos:station:WAVCIS:CSI16:2,2010-11-02T19:15:00Z,29.4012,-89.0355,10.0,25.588,11111222 
WAVCIS,ioos:station:WAVCIS:CSI16:2,2010-11-02T19:30:00Z,29.4012,-89.0355,10.0,25.582,11111222 
WAVCIS,ioos:station:WAVCIS:CSI16:2,2010-11-02T19:45:00Z,29.4012,-89.0355,10.0,25.58,11111222 
WAVCIS,ioos:station:WAVCIS:CSI16:2,2010-11-02T20:00:00Z,29.4012,-89.0355,10.0,25.584,11111222 
WAVCIS,ioos:station:WAVCIS:CSI16:2,2010-11-02T20:15:00Z,29.4012,-89.0355,10.0,25.603,11111222 
WAVCIS,ioos:station:WAVCIS:CSI16:2,2010-11-02T20:30:00Z,29.4012,-89.0355,10.0,25.594,11111222 
WAVCIS,ioos:station:WAVCIS:CSI16:2,2010-11-02T20:45:00Z,29.4012,-89.0355,10.0,25.579,11111222 
WAVCIS,ioos:station:WAVCIS:CSI16:2,2010-11-02T21:00:00Z,29.4012,-89.0355,10.0,25.575,11111222 
WAVCIS,ioos:station:WAVCIS:CSI16:2,2010-11-02T21:15:00Z,29.4012,-89.0355,10.0,25.565,11111222 
WAVCIS,ioos:station:WAVCIS:CSI16:2,2010-11-02T21:30:00Z,29.4012,-89.0355,10.0,25.544,11111222 
WAVCIS,ioos:station:WAVCIS:CSI16:2,2010-11-02T21:45:00Z,29.4012,-89.0355,10.0,25.554,11111222 
WAVCIS,ioos:station:WAVCIS:CSI16:2,2010-11-02T22:00:00Z,29.4012,-89.0355,10.0,25.535,11111222 
WAVCIS,ioos:station:WAVCIS:CSI16:2,2010-11-02T22:15:00Z,29.4012,-89.0355,10.0,25.599,11111222 
WAVCIS,ioos:station:WAVCIS:CSI16:2,2010-11-02T22:30:00Z,29.4012,-89.0355,10.0,25.469,11111222 
WAVCIS,ioos:station:WAVCIS:CSI16:2,2010-11-02T22:45:00Z,29.4012,-89.0355,10.0,25.412,11111222 
WAVCIS,ioos:station:WAVCIS:CSI16:2,2010-11-02T23:00:00Z,29.4012,-89.0355,10.0,25.05,11111222 
WAVCIS,ioos:station:WAVCIS:CSI16:2,2010-11-02T23:15:00Z,29.4012,-89.0355,10.0,25.128,11111222 
WAVCIS,ioos:station:WAVCIS:CSI16:2,2010-11-02T23:30:00Z,29.4012,-89.0355,10.0,25.103,11111222 
WAVCIS,ioos:station:WAVCIS:CSI16:2,2010-11-02T23:45:00Z,29.4012,-89.0355,10.0,25.245,11111222 
WAVCIS,ioos:station:WAVCIS:CSI16:2,2010-11-03T00:00:00Z,29.4012,-89.0355,10.0,25.125,11111222 
WAVCIS,ioos:station:WAVCIS:CSI16:2,2010-11-03T00:15:00Z,29.4012,-89.0355,10.0,25.166,11111222 
WAVCIS,ioos:station:WAVCIS:CSI16:2,2010-11-03T00:30:00Z,29.4012,-89.0355,10.0,25.026,11111222 
WAVCIS,ioos:station:WAVCIS:CSI16:2,2010-11-03T00:45:00Z,29.4012,-89.0355,10.0,25.061,11111222 
WAVCIS,ioos:station:WAVCIS:CSI16:2,2010-11-03T01:00:00Z,29.4012,-89.0355,10.0,25.104,11111222 
WAVCIS,ioos:station:WAVCIS:CSI16:2,2010-11-03T01:15:00Z,29.4012,-89.0355,10.0,25.117,11111222 
WAVCIS,ioos:station:WAVCIS:CSI16:2,2010-11-03T01:30:00Z,29.4012,-89.0355,10.0,25.007,11111222 
WAVCIS,ioos:station:WAVCIS:CSI16:2,2010-11-03T01:45:00Z,29.4012,-89.0355,10.0,24.946,11111222 
WAVCIS,ioos:station:WAVCIS:CSI16:2,2010-11-03T02:00:00Z,29.4012,-89.0355,10.0,25.109,11111222 
WAVCIS,ioos:station:WAVCIS:CSI16:2,2010-11-03T02:15:00Z,29.4012,-89.0355,10.0,25.082,11111222 
WAVCIS,ioos:station:WAVCIS:CSI16:2,2010-11-03T02:30:00Z,29.4012,-89.0355,10.0,25.133,11111222 
WAVCIS,ioos:station:WAVCIS:CSI16:2,2010-11-03T02:45:00Z,29.4012,-89.0355,10.0,25.163,11111222 
WAVCIS,ioos:station:WAVCIS:CSI16:2,2010-11-03T03:00:00Z,29.4012,-89.0355,10.0,24.865,11111222 
WAVCIS,ioos:station:WAVCIS:CSI16:2,2010-11-03T03:15:00Z,29.4012,-89.0355,10.0,24.886,11111222 
WAVCIS,ioos:station:WAVCIS:CSI16:2,2010-11-03T03:30:00Z,29.4012,-89.0355,10.0,25.01,11111222 
WAVCIS,ioos:station:WAVCIS:CSI16:2,2010-11-03T03:45:00Z,29.4012,-89.0355,10.0,25.031,11111222 
WAVCIS,ioos:station:WAVCIS:CSI16:2,2010-11-03T04:00:00Z,29.4012,-89.0355,10.0,25.024,11111222 
WAVCIS,ioos:station:WAVCIS:CSI16:2,2010-11-03T04:15:00Z,29.4012,-89.0355,10.0,25.111,11111222 
WAVCIS,ioos:station:WAVCIS:CSI16:2,2010-11-03T04:30:00Z,29.4012,-89.0355,10.0,25.261,11111222 
WAVCIS,ioos:station:WAVCIS:CSI16:2,2010-11-03T04:45:00Z,29.4012,-89.0355,10.0,25.228,11111222 
WAVCIS,ioos:station:WAVCIS:CSI16:2,2010-11-03T05:00:00Z,29.4012,-89.0355,10.0,25.226,11111222 
WAVCIS,ioos:station:WAVCIS:CSI16:2,2010-11-03T05:15:00Z,29.4012,-89.0355,10.0,25.105,11111222 
WAVCIS,ioos:station:WAVCIS:CSI16:2,2010-11-03T05:30:00Z,29.4012,-89.0355,10.0,25.085,11111222 
WAVCIS,ioos:station:WAVCIS:CSI16:2,2010-11-03T05:45:00Z,29.4012,-89.0355,10.0,25.115,11111222 
WAVCIS,ioos:station:WAVCIS:CSI16:2,2010-11-03T06:00:00Z,29.4012,-89.0355,10.0,25.172,11111222 
WAVCIS,ioos:station:WAVCIS:CSI16:2,2010-11-03T06:15:00Z,29.4012,-89.0355,10.0,25.118,11111222 
WAVCIS,ioos:station:WAVCIS:CSI16:2,2010-11-03T06:30:00Z,29.4012,-89.0355,10.0,24.986,11111222 
WAVCIS,ioos:station:WAVCIS:CSI16:2,2010-11-03T06:45:00Z,29.4012,-89.0355,10.0,24.97,11111222 
WAVCIS,ioos:station:WAVCIS:CSI16:2,2010-11-03T07:00:00Z,29.4012,-89.0355,10.0,24.969,11111222 
WAVCIS,ioos:station:WAVCIS:CSI16:2,2010-11-03T07:15:00Z,29.4012,-89.0355,10.0,24.79,11111222 
WAVCIS,ioos:station:WAVCIS:CSI16:2,2010-11-03T07:30:00Z,29.4012,-89.0355,10.0,24.653,11111222 
WAVCIS,ioos:station:WAVCIS:CSI16:2,2010-11-03T07:45:00Z,29.4012,-89.0355,10.0,24.367,11111222 
WAVCIS,ioos:station:WAVCIS:CSI16:2,2010-11-03T08:00:00Z,29.4012,-89.0355,10.0,24.275,11111222 
WAVCIS,ioos:station:WAVCIS:CSI16:2,2010-11-03T08:15:00Z,29.4012,-89.0355,10.0,24.18,11111222 
WAVCIS,ioos:station:WAVCIS:CSI16:2,2010-11-03T08:30:00Z,29.4012,-89.0355,10.0,24.037,11111222 
WAVCIS,ioos:station:WAVCIS:CSI16:2,2010-11-03T08:45:00Z,29.4012,-89.0355,10.0,24.139,11111222 
WAVCIS,ioos:station:WAVCIS:CSI16:2,2010-11-03T09:00:00Z,29.4012,-89.0355,10.0,24.142,11111222 
WAVCIS,ioos:station:WAVCIS:CSI16:2,2010-11-03T09:15:00Z,29.4012,-89.0355,10.0,23.934,11111222 
WAVCIS,ioos:station:WAVCIS:CSI16:2,2010-11-03T09:30:00Z,29.4012,-89.0355,10.0,23.972,11111222 
WAVCIS,ioos:station:WAVCIS:CSI16:2,2010-11-03T09:45:00Z,29.4012,-89.0355,10.0,24.086,11111222 
WAVCIS,ioos:station:WAVCIS:CSI16:2,2010-11-03T10:00:00Z,29.4012,-89.0355,10.0,24.112,11111222 
WAVCIS,ioos:station:WAVCIS:CSI16:2,2010-11-03T10:15:00Z,29.4012,-89.0355,10.0,24.068,11111222 
WAVCIS,ioos:station:WAVCIS:CSI16:2,2010-11-03T10:30:00Z,29.4012,-89.0355,10.0,24.091,11111222 
WAVCIS,ioos:station:WAVCIS:CSI16:2,2010-11-03T10:45:00Z,29.4012,-89.0355,10.0,24.162,11111222 
WAVCIS,ioos:station:WAVCIS:CSI16:2,2010-11-03T11:00:00Z,29.4012,-89.0355,10.0,24.129,11111222 
WAVCIS,ioos:station:WAVCIS:CSI16:2,2010-11-03T11:15:00Z,29.4012,-89.0355,10.0,23.956,11111222 
WAVCIS,ioos:station:WAVCIS:CSI16:2,2010-11-03T11:30:00Z,29.4012,-89.0355,10.0,24.202,11111222 
WAVCIS,ioos:station:WAVCIS:CSI16:2,2010-11-03T11:45:00Z,29.4012,-89.0355,10.0,24.301,11111222 
WAVCIS,ioos:station:WAVCIS:CSI16:2,2010-11-03T12:00:00Z,29.4012,-89.0355,10.0,24.41,11111222 
WAVCIS,ioos:station:WAVCIS:CSI16:2,2010-11-03T12:15:00Z,29.4012,-89.0355,10.0,24.367,11111222 
WAVCIS,ioos:station:WAVCIS:CSI16:2,2010-11-03T12:30:00Z,29.4012,-89.0355,10.0,24.263,11111222 
WAVCIS,ioos:station:WAVCIS:CSI16:2,2010-11-03T12:45:00Z,29.4012,-89.0355,10.0,24.243,11111222 
WAVCIS,ioos:station:WAVCIS:CSI16:2,2010-11-03T13:00:00Z,29.4012,-89.0355,10.0,24.55,11111222 
WAVCIS,ioos:station:WAVCIS:CSI16:2,2010-11-03T13:15:00Z,29.4012,-89.0355,10.0,24.55,11111222 
WAVCIS,ioos:station:WAVCIS:CSI16:2,2010-11-03T13:30:00Z,29.4012,-89.0355,10.0,24.582,11111222 
WAVCIS,ioos:station:WAVCIS:CSI16:2,2010-11-03T13:45:00Z,29.4012,-89.0355,10.0,24.532,11111222 
WAVCIS,ioos:station:WAVCIS:CSI16:2,2010-11-03T14:00:00Z,29.4012,-89.0355,10.0,24.486,11111222 
WAVCIS,ioos:station:WAVCIS:CSI16:2,2010-11-03T14:15:00Z,29.4012,-89.0355,10.0,24.552,11111222 
WAVCIS,ioos:station:WAVCIS:CSI16:2,2010-11-03T14:30:00Z,29.4012,-89.0355,10.0,24.442,11111222 
WAVCIS,ioos:station:WAVCIS:CSI16:2,2010-11-03T14:45:00Z,29.4012,-89.0355,10.0,24.439,11111222 